Location: Bailen
(14.1842°N, 120.7958°E)
Time: 14:38:33
(UTC+00:00)

NOAA 12 - Visible Passes

Search period start: 19 April 2026 00:00
Search period end: 29 April 2026 00:00
Orbit: 793 x 812 km, 98.6° (Epoch: 19 April)

Date Brightness Start Highest point End Pass type
(mag) Time Alt. Az. Time Alt. Az. Time Alt. Az.
19 Apr 4.2 21:04:59 10° N 21:10:03 53° WNW 21:15:06 10° SSW visible
20 Apr 4.2 20:39:03 10° NNE 20:44:16 76° ESE 20:49:28 10° S visible
21 Apr 5.5 20:13:39 10° NE 20:18:27 37° E 20:23:13 10° SSE visible
22 Apr 6.6 19:49:02 10° NE 19:52:35 19° E 19:56:08 10° SE visible
23 Apr 4.1 21:01:16 10° N 21:06:23 59° WNW 21:11:30 10° SSW visible
24 Apr 4.4 20:35:25 10° NNE 20:40:36 69° ESE 20:45:47 10° S visible
25 Apr 5.7 20:10:06 10° NE 20:14:46 34° E 20:19:26 10° SSE visible
26 Apr 6.7 19:45:38 10° ENE 19:48:54 17° E 19:52:10 10° SE visible
27 Apr 4.1 20:57:34 10° N 21:02:44 65° WNW 21:07:52 10° SSW visible
28 Apr 4.6 20:31:47 10° NNE 20:36:56 62° ESE 20:42:04 10° S visible
